| time (UTC) | temp C | wind direction | speed KPH | gust KPH | rain 1hr cm | rain 24hr cm | rain mn cm | humidity % | barometer mb |
| 20260504110612 | 5 | 283 | 0.0 | 0.0 | 0.00 | 0.00 | 0.00 | 95 | 1019.1 |
| 20260504100605 | 5 | 283 | 0.0 | 0.0 | 0.00 | 0.00 | 0.00 | 94 | 1018.9 |
| 20260504081526 | 6 | 283 | 0.0 | 0.0 | 0.00 | 0.00 | 0.00 | 93 | 1018.8 |
| 20260504080545 | 6 | 283 | 0.0 | 0.0 | 0.00 | 0.00 | 0.00 | 93 | 1018.8 |
| 20260504050559 | 8 | 283 | 0.0 | 0.0 | 0.00 | 0.00 | 0.00 | 89 | 1019.7 |
| 20260504045536 | 8 | 283 | 0.0 | 0.0 | 0.00 | 0.00 | 0.00 | 89 | 1019.6 |
| 20260504044535 | 8 | 283 | 0.0 | 0.0 | 0.00 | 0.00 | 0.00 | 88 | 1019.7 |
| 20260504043533 | 8 | 283 | 0.0 | 0.0 | 0.00 | 0.00 | 0.00 | 87 | 1019.6 |
| 20260504042531 | 8 | 283 | 0.0 | 0.0 | 0.00 | 0.00 | 0.00 | 87 | 1019.5 |
| 20260504041533 | 8 | 283 | 0.0 | 0.0 | 0.00 | 0.00 | 0.00 | 86 | 1019.6 |
| 20260504040612 | 9 | 283 | 0.0 | 0.0 | 0.00 | 0.00 | 0.00 | 86 | 1019.6 |
| 20260504035525 | 9 | 283 | 0.0 | 0.0 | 0.00 | 0.00 | 0.00 | 85 | 1019.6 |
| 20260504034527 | 10 | 283 | 0.0 | 0.0 | 0.00 | 0.00 | 0.00 | 84 | 1019.7 |
| 20260504033526 | 10 | 283 | 0.0 | 0.0 | 0.00 | 0.00 | 0.00 | 83 | 1019.6 |
| 20260504032524 | 10 | 283 | 0.0 | 0.0 | 0.00 | 0.00 | 0.00 | 83 | 1019.7 |
| 20260504031526 | 10 | 283 | 0.0 | 0.0 | 0.00 | 0.00 | 0.00 | 82 | 1019.7 |
| 20260504030605 | 10 | 283 | 0.0 | 0.0 | 0.00 | 0.00 | 0.00 | 81 | 1019.6 |
| 20260504025518 | 11 | 283 | 0.0 | 0.0 | 0.00 | 0.00 | 0.00 | 79 | 1019.6 |
| 20260504024536 | 11 | 283 | 0.0 | 0.0 | 0.00 | 0.00 | 0.00 | 79 | 1019.7 |
| 20260504023519 | 11 | 283 | 0.0 | 0.0 | 0.00 | 0.00 | 0.00 | 78 | 1019.7 |
| 20260504022558 | 11 | 283 | 0.0 | 0.0 | 0.00 | 0.00 | 0.00 | 77 | 1019.5 |
| 20260504021535 | 11 | 283 | 0.0 | 0.0 | 0.00 | 0.00 | 0.00 | 76 | 1019.4 |
| 20260504020614 | 12 | 283 | 0.0 | 0.0 | 0.00 | 0.00 | 0.00 | 74 | 1019.3 |
| 20260504015531 | 12 | 283 | 0.0 | 0.0 | 0.00 | 0.00 | 0.00 | 73 | 1019.1 |
| 20260504014529 | 12 | 283 | 0.0 | 0.0 | 0.00 | 0.00 | 0.00 | 72 | 1018.8 |
| 20260504013528 | 13 | 283 | 0.0 | 0.0 | 0.00 | 0.00 | 0.00 | 70 | 1018.8 |
| 20260504012530 | 13 | 283 | 0.0 | 0.0 | 0.00 | 0.00 | 0.00 | 68 | 1018.7 |
| 20260504011527 | 13 | 283 | 0.0 | 0.0 | 0.00 | 0.00 | 0.00 | 66 | 1018.7 |
| 20260504010547 | 14 | 283 | 0.0 | 0.0 | 0.00 | 0.00 | 0.00 | 65 | 1018.7 |
| 20260504005525 | 15 | 283 | 0.0 | 0.0 | 0.00 | 0.00 | 0.00 | 62 | 1018.6 |
| 20260504004523 | 16 | 283 | 0.0 | 0.0 | 0.00 | 0.00 | 0.00 | 61 | 1018.5 |
| 20260504003543 | 16 | 283 | 0.0 | 0.0 | 0.00 | 0.00 | 0.00 | 56 | 1018.3 |
| 20260504002519 | 17 | 283 | 0.0 | 0.0 | 0.00 | 0.00 | 0.00 | 54 | 1018.2 |
| 20260504001521 | 18 | 283 | 0.0 | 0.0 | 0.00 | 0.00 | 0.00 | 49 | 1018.2 |
| 20260504000601 | 18 | 283 | 0.0 | 3.2 | 0.00 | 0.00 | 0.00 | 46 | 1018.2 |
| 20260503235535 | 18 | 283 | 1.6 | 4.8 | 0.00 | 0.00 | 0.00 | 45 | 1018.2 |
| 20260503234553 | 18 | 283 | 1.6 | 6.4 | 0.00 | 0.00 | 0.00 | 45 | 1018.1 |
| 20260503233536 | 19 | 285 | 3.2 | 9.7 | 0.00 | 0.00 | 0.00 | 44 | 1018.2 |
| 20260503232533 | 19 | 285 | 1.6 | 6.4 | 0.00 | 0.00 | 0.00 | 44 | 1018.1 |
| 20260503231532 | 19 | 266 | 4.8 | 9.7 | 0.00 | 0.00 | 0.00 | 46 | 1018.1 |
| 20260503230555 | 20 | 289 | 3.2 | 4.8 | 0.00 | 0.00 | 0.00 | 46 | 1018.2 |
| 20260503225528 | 20 | 289 | 4.8 | 8.0 | 0.00 | 0.00 | 0.00 | 45 | 1018.3 |
| 20260503224526 | 20 | 285 | 3.2 | 9.7 | 0.00 | 0.00 | 0.00 | 45 | 1018.3 |
| 20260503223530 | 20 | 277 | 6.4 | 11.3 | 0.00 | 0.00 | 0.00 | 44 | 1018.3 |
| 20260503222527 | 20 | 266 | 1.6 | 6.4 | 0.00 | 0.00 | 0.00 | 44 | 1018.4 |
| 20260503221525 | 20 | 262 | 3.2 | 11.3 | 0.00 | 0.00 | 0.00 | 43 | 1018.4 |
| 20260503220549 | 20 | 271 | 4.8 | 11.3 | 0.00 | 0.00 | 0.00 | 41 | 1018.5 |
| 20260503215522 | 20 | 287 | 4.8 | 11.3 | 0.00 | 0.00 | 0.00 | 43 | 1018.5 |
| 20260503214521 | 20 | 266 | 6.4 | 12.9 | 0.00 | 0.00 | 0.00 | 45 | 1018.5 |
| 20260503213520 | 20 | 291 | 3.2 | 6.4 | 0.00 | 0.00 | 0.00 | 47 | 1018.5 |
| 20260503212521 | 20 | 265 | 4.8 | 9.7 | 0.00 | 0.00 | 0.00 | 47 | 1018.6 |
| 20260503211540 | 20 | 280 | 3.2 | 9.7 | 0.00 | 0.00 | 0.00 | 46 | 1018.6 |
| 20260503210559 | 20 | 268 | 1.6 | 4.8 | 0.00 | 0.00 | 0.00 | 49 | 1018.7 |
| 20260503205536 | 20 | 268 | 4.8 | 9.7 | 0.00 | 0.00 | 0.00 | 48 | 1018.7 |
| 20260503204534 | 20 | 282 | 4.8 | 8.0 | 0.00 | 0.00 | 0.00 | 46 | 1018.9 |
| 20260503203533 | 20 | 297 | 4.8 | 6.4 | 0.00 | 0.00 | 0.00 | 46 | 1019.1 |
| 20260503202531 | 20 | 264 | 4.8 | 9.7 | 0.00 | 0.00 | 0.00 | 50 | 1019.2 |
| 20260503201533 | 19 | 292 | 3.2 | 8.0 | 0.00 | 0.00 | 0.00 | 48 | 1019.5 |
| 20260503200552 | 19 | 265 | 3.2 | 12.9 | 0.00 | 0.00 | 0.00 | 48 | 1019.7 |
| 20260503195525 | 18 | 314 | 0.0 | 6.4 | 0.00 | 0.00 | 0.00 | 45 | 1019.8 |
| 20260503194527 | 18 | 280 | 4.8 | 9.7 | 0.00 | 0.00 | 0.00 | 47 | 1020.0 |
| 20260503193526 | 18 | 279 | 8.0 | 11.3 | 0.00 | 0.00 | 0.00 | 48 | 1020.2 |
| 20260503192524 | 18 | 287 | 3.2 | 9.7 | 0.00 | 0.00 | 0.00 | 48 | 1020.3 |
| 20260503191527 | 18 | 266 | 4.8 | 12.9 | 0.00 | 0.00 | 0.00 | 51 | 1020.4 |
| 20260503190605 | 18 | 283 | 8.0 | 12.9 | 0.00 | 0.00 | 0.00 | 50 | 1020.5 |
| 20260503185539 | 18 | 320 | 3.2 | 9.7 | 0.00 | 0.00 | 0.00 | 50 | 1020.6 |
| 20260503184536 | 18 | 295 | 3.2 | 6.4 | 0.00 | 0.00 | 0.00 | 51 | 1020.7 |
| 20260503183540 | 17 | 262 | 3.2 | 6.4 | 0.00 | 0.00 | 0.00 | 52 | 1020.9 |
| 20260503182517 | 17 | 295 | 8.0 | 12.9 | 0.00 | 0.00 | 0.00 | 52 | 1021.0 |
| 20260503181535 | 17 | 274 | 4.8 | 8.0 | 0.00 | 0.00 | 0.00 | 49 | 1021.0 |
| 20260503180554 | 17 | 261 | 3.2 | 8.0 | 0.00 | 0.00 | 0.00 | 51 | 1021.0 |
| 20260503175532 | 17 | 296 | 3.2 | 8.0 | 0.00 | 0.00 | 0.00 | 50 | 1021.1 |
| 20260503174530 | 17 | 264 | 4.8 | 9.7 | 0.00 | 0.00 | 0.00 | 52 | 1021.1 |
| 20260503173529 | 17 | 270 | 3.2 | 6.4 | 0.00 | 0.00 | 0.00 | 53 | 1021.3 |
| 20260503172531 | 17 | 257 | 3.2 | 6.4 | 0.00 | 0.00 | 0.00 | 52 | 1021.4 |
| 20260503171529 | 17 | 268 | 3.2 | 9.7 | 0.00 | 0.00 | 0.00 | 52 | 1021.5 |
| 20260503170548 | 17 | 278 | 3.2 | 6.4 | 0.00 | 0.00 | 0.00 | 53 | 1021.5 |
| 20260503150556 | 15 | 264 | 3.2 | 9.7 | 0.00 | 0.00 | 0.00 | 58 | 1022.4 |
| 20260503130558 | 10 | 348 | 0.0 | 0.0 | 0.00 | 0.00 | 0.00 | 84 | 1021.9 |